Overview Statistics Trail Chart Weather Telemetry Raw packets
 

This is the latest recevied weather packets stored in our database for station/object KI6AOK. If no packets are shown the sender has not sent any weather packets the latest 10 day(s).

<< 2 3 4 5 6 7 8 >>
Time Temp. Humidity Pressure Rain* Wind** Luminosity Snow
1788575433 21.67° C 66% 1012.2 hPa 0 mm - 0 W/m² -
1788575132 21.67° C 65% 1012.3 hPa 0 mm - 0 W/m² -
1788574828 21.67° C 64% 1012.5 hPa 0 mm - 1 W/m² -
1788574527 22.22° C 63% 1012.5 hPa 0 mm - 2 W/m² -
1788574223 22.22° C 62% 1012.3 hPa 0 mm - 4 W/m² -
1788573922 22.78° C 61% 1012.3 hPa 0 mm - 6 W/m² -
1788573618 22.78° C 60% 1012.1 hPa 0 mm - 9 W/m² -
1788573315 22.78° C 60% 1012.1 hPa 0 mm - 12 W/m² -
1788573015 23.33° C 58% 1012.2 hPa 0 mm - 15 W/m² -
1788572710 23.89° C 57% 1012.1 hPa 0 mm - 18 W/m² -
1788572406 23.89° C 56% 1012.1 hPa 0 mm - 21 W/m² -
1788572102 24.44° C 54% 1012.1 hPa 0 mm - 23 W/m² -
1788571797 25° C 53% 1012.1 hPa 0 mm - 34 W/m² -
1788571492 25.56° C 53% 1012.2 hPa 0 mm - 40 W/m² -
1788571189 25° C 53% 1012.1 hPa 0 mm - 46 W/m² -
1788570884 25.56° C 53% 1012.1 hPa 0 mm - 48 W/m² -
1788570580 25.56° C 51% 1012.2 hPa 0 mm - 59 W/m² -
1788570275 25.56° C 51% 1012.1 hPa 0 mm - 63 W/m² -
1788569970 25.56° C 51% 1012.2 hPa 0 mm - 72 W/m² -
1788569666 26.11° C 48% 1012.1 hPa 0 mm - 75 W/m² -
1788569366 25.56° C 49% 1012.2 hPa 0 mm - 87 W/m² -
1788569061 26.11° C 47% 1012.3 hPa 0 mm - 85 W/m² -
1788568756 26.67° C 46% 1012.3 hPa 0 mm - 86 W/m² -
1788568452 26.67° C 43% 1012.3 hPa 0 mm - 120 W/m² -
1788568148 26.67° C 42% 1012.2 hPa 0 mm - 135 W/m² -

* Rain latest hour (hover to see other rain measurements)
** Current wind speed in m/s (hover to see current wind gust speed)